STARLINK-3883, 52493

Orbit data source: Space-Track

STARLINK-3883, 52493 is a payload satellite owned by SpaceX/Seattle (US) in LEO that was launched on Fri, 06 May 2022 UTC via an FALCON 9 launch vehicle from the Air Force Eastern Test Range (AFETR). Payload-class satellites include a variety of spacecraft equipped with specific instruments for various scientific and technological missions. These include communications satellites like Starlink; space stations such as the ISS; scientific satellites like the Hubble; Earth observation satellites from companies like Planet Labs, Umbra, and HawkEye 360; GPS; miniature CubeSats for education and research; and military/defense satellites.

Loading next visibility...
Identifier
52493, 2022-049AU
Orbit
LEO
Country
Flag of USUS
Related business
Manufacturer
SpaceX/Seattle
Mission
Operational Commercial Communications
Bus & Motor
STARLINK, Unknown motor
Mass
297 kg wet, ~220 kg dry
Launch date (UTC)
2022-05-06 (4 years ago)
Launch vehicle
FALCON 9
Launch site
Air Force Eastern Test Range (AFETR)
Object type
Payload
Rocket body
Debris
Shape & HBR
Box + 1 Pan, 10.1 m
Radar Cross Section
13.562 m², Large (>1 m²)

Expand to show TLE details & history
Last TLE update: 1 day ago

TLE from 1 day ago
0 STARLINK-3883
1 52493U 22049AU  26227.73509823  .00000119  00000-0  14938-4 0  9996
2 52493  53.1635  51.1202 0001034  81.1046 279.0073 15.33556675236451
Epoch: 2026-08-15T17:38Z
TLE epoch observation values (Epoch: 2026-08-15T17:38:32.487Z)
Latitude
-0.00003°
Longitude
-177.65689°
Altitude
466.002 km
Speed
7.635 km/s
True Right ascension
03h 24m 28s
True Declination
0° 00' 00"
Sunlit
Object was in daylight at epoch
Visualization orbit readout
Latitude
Unknown
Longitude
Unknown
Altitude
Unknown
Speed
Unknown
Apparent Right ascension
Unknown
Apparent Declination
Unknown
Sunlit
N/A
Visualization observer readout
Local Sidereal Time
16:44:30
Azimuth
Unknown
Elevation
Unknown
Doppler factor
Unknown
Orbital elements
Apogee altitude
466.175 km
Perigee altitude
464.76 km
Semi-major axis
6,843.604 km
Eccentricity
0.0001
Inclination
53.1635°
RAAN
51.1202°
Arg. of periapsis
81.1046°
True anomaly
278.9956°
Mean anomaly
279.0073°
Eccentric anomaly
279.00145°
Mean motion
3.83368 °/min
Orbital period
93.9 mins
BSTAR
0.000014938
Loading maneuver chart data...
Computing Atmospheric mass density...
Loading historical data...
Loading historical data...
Loading historical data...
Loading historical data...
Loading historical data...
Loading historical data...
Loading historical data...

Documentation

Showing up to 5 results
|